Change the Weather History Date:

Monday, November 28, 2011

  Actual Average Record
Temperature  
Mean Temperature 76 °F 74 °F  
Max Temperature 81 °F 80 °F 88 °F (1948)
Min Temperature 71 °F 67 °F 38 °F (1956)
Degree Days  
Heating Degree Days 0 0  
Month to date heating degree days 0 0  
Since 1 July heating degree days 0 0  
Cooling Degree Days 11 9  
Month to date cooling degree days 310 301  
Year to date cooling degree days 4585 4495  
Growing Degree Days 26 (Base 50)    
Moisture  
Dew Point 67 °F    
Average Humidity 75    
Maximum Humidity 87    
Minimum Humidity 62    
Precipitation  
Precipitation T in 0.10 in 2.00 in (1947)
Month to date precipitation 0.42 3.03  
Year to date precipitation 39.29 59.51  
Snow  
Snow 0.00 in - - ()
Month to date snowfall 0.0  
Since 1 July snowfall 0.0  
Since 1 September snowfall 0.0  
Snow Depth 0.00 in    
Sea Level Pressure  
Sea Level Pressure 29.93 in    
Wind  
Wind Speed 10 mph (South)    
Max Wind Speed 20 mph    
Max Gust Speed 26 mph    
Visibility 10 miles    
Events Rain    
T = Trace of Precipitation, MM = Missing Value Source: NWS Daily Summary

Daily Weather History Graph

Daily Weather History Graph

Search for Another Location

Airport or City:

Trip Planner

Search our weather history database for the weather conditions in past years. The results will help you decide how hot, cold, wet, or windy it might be!

Date:

Astronomy

Nov. 28, 2011 Rise Set
Actual Time 6:48 AM EST 5:28 PM EST
Civil Twilight 6:23 AM EST 5:53 PM EST
Nautical Twilight 5:55 AM EST 6:21 PM EST
Astronomical Twilight 5:27 AM EST 6:49 PM EST
Moon 9:59 AM EST (11/28) 9:08 PM EST (11/28)
Length of Visible Light 11h 29m
Length of Day
10h 40m
Waxing Crescent, 15% of the Moon is Illuminated
Nov 28
Waxing Crescent
Dec 2
First Quarter
Dec 10
Full
Dec 17
Last Quarter
Dec 24
New

Hourly Weather History & Observations

Time (EST) Temp. Heat Index Dew Point Humidity Pressure Visibility Wind Dir Wind Speed Gust Speed Precip Events Conditions
12:53 AM 75.0 °F - 66.9 °F 76% 29.97 in 10.0 mi SE 16.1 mph 25.3 mph N/A   Partly Cloudy
1:53 AM 75.0 °F - 68.0 °F 79% 29.96 in 10.0 mi SE 11.5 mph - N/A   Scattered Clouds
2:53 AM 75.0 °F - 66.9 °F 76% 29.94 in 10.0 mi SE 12.7 mph 18.4 mph N/A   Mostly Cloudy
3:53 AM 75.0 °F - 68.0 °F 79% 29.93 in 10.0 mi ESE 16.1 mph 21.9 mph N/A   Mostly Cloudy
4:53 AM 75.0 °F - 68.0 °F 79% 29.92 in 10.0 mi SE 10.4 mph - 0.00 in   Mostly Cloudy
5:53 AM 75.9 °F - 66.9 °F 74% 29.93 in 10.0 mi SSE 11.5 mph 18.4 mph N/A   Overcast
6:38 AM 75.2 °F - 68.0 °F 78% 29.94 in 10.0 mi SSE 8.1 mph - 0.00 in Rain Light Rain
6:53 AM 75.0 °F - 68.0 °F 79% 29.94 in 10.0 mi SSE 9.2 mph - 0.00 in Rain Light Rain
7:53 AM 75.9 °F - 68.0 °F 76% 29.94 in 10.0 mi SSE 15.0 mph - 0.00 in   Scattered Clouds
8:38 AM 77.0 °F - 69.8 °F 78% 29.95 in 10.0 mi SSE 16.1 mph 20.7 mph N/A   Mostly Cloudy
8:53 AM 77.0 °F - 68.0 °F 74% 29.95 in 10.0 mi SSE 16.1 mph 26.5 mph N/A   Mostly Cloudy
9:03 AM 78.8 °F - 68.0 °F 69% 29.95 in 10.0 mi South 11.5 mph - N/A   Mostly Cloudy
9:18 AM 73.4 °F - 66.2 °F 78% 29.96 in 10.0 mi SW 8.1 mph - N/A   Overcast
9:53 AM 73.9 °F - 66.9 °F 79% 29.96 in 10.0 mi SSW 5.8 mph - N/A   Overcast
10:53 AM 73.9 °F - 69.1 °F 85% 29.96 in 10.0 mi SSW 9.2 mph - 0.00 in   Overcast
11:36 AM 75.2 °F - 69.8 °F 83% 29.94 in 10.0 mi South 4.6 mph - N/A   Mostly Cloudy
11:46 AM 78.8 °F - 69.8 °F 74% 29.94 in 10.0 mi SSE 6.9 mph - N/A   Mostly Cloudy
11:53 AM 80.1 °F 82.9 °F 69.1 °F 69% 29.94 in 10.0 mi SSE 13.8 mph 18.4 mph N/A   Mostly Cloudy
12:53 PM 81.0 °F 83.3 °F 66.9 °F 62% 29.90 in 10.0 mi SSE 12.7 mph 23.0 mph N/A   Partly Cloudy
1:53 PM 80.1 °F 82.3 °F 66.9 °F 64% 29.89 in 10.0 mi South 12.7 mph - N/A   Partly Cloudy
2:53 PM 80.1 °F 82.3 °F 66.9 °F 64% 29.88 in 10.0 mi South 12.7 mph - N/A   Mostly Cloudy
3:53 PM 80.1 °F 82.3 °F 66.9 °F 64% 29.88 in 10.0 mi SSE 13.8 mph - N/A   Scattered Clouds
4:53 PM 78.1 °F - 66.0 °F 66% 29.88 in 10.0 mi South 8.1 mph - N/A   Partly Cloudy
5:53 PM 75.9 °F - 66.0 °F 71% 29.90 in 10.0 mi South 6.9 mph - N/A   Partly Cloudy
6:53 PM 75.0 °F - 66.9 °F 76% 29.91 in 10.0 mi South 4.6 mph - N/A   Partly Cloudy
7:53 PM 73.9 °F - 66.0 °F 76% 29.92 in 10.0 mi South 3.5 mph - N/A   Clear
8:53 PM 73.0 °F - 66.0 °F 79% 29.93 in 10.0 mi Calm Calm - N/A   Partly Cloudy
9:53 PM 72.0 °F - 66.0 °F 81% 29.93 in 10.0 mi Calm Calm - N/A   Scattered Clouds
10:53 PM 72.0 °F - 66.9 °F 84% 29.94 in 10.0 mi SW 3.5 mph - N/A   Mostly Cloudy
11:53 PM 73.0 °F - 66.9 °F 81% 29.93 in 10.0 mi West 8.1 mph - N/A   Mostly Cloudy